Regional Weather Roundup
Issued by NWS Goodland, KS

Home | Current Version | Previous Version | Text Only | Print | Product List | Glossary On
Versions: 1 2 3 4 5 6 7 8 9 10 11 12 13 14 15 16 17 18 19 20 21 22 23 24 25 26 27 28 29 30 31 32 33 34 35 36 37 38 39 40 41 42 43 44 45 46 47 48 49 50
000
ASUS43 KGLD 111808
RWRGLD

GOODLAND FORECAST AREA HOURLY WEATHER ROUNDUP
NATIONAL WEATHER SERVICE GOODLAND KS
1100 AM MST THU FEB 11 2016

...OFFICIAL OBSERVATIONS...

CITY           SKY/WX    TMP DP  RH WIND       PRES   REMARKS
GOODLAND KS    SUNNY     54  27  35 SW14      30.10F
HILL CITY KS   CLOUDY    32  28  85 S8        30.20F
IMPERIAL NEB     N/A     46  28  49 MISG      30.09S
MCCOOK NEB     CLOUDY    33  30  88 S7        30.12F
AKRON CO       CLOUDY    47  28  47 NW9       30.12R
BURLINGTON CO  CLOUDY    49  27  42 SW15      30.12F
LIMON CO       CLOUDY    44  23  43 NE5       30.16F
$$

...UNOFFICIAL OBSERVATIONS...

CITY           SKY/WX    TMP DP  RH WIND       PRES   REMARKS
COLBY KS       SUNNY     45  36  70 S9        30.12F
GOVE KS          N/A     43  32  65 MISG        N/A
LENORA KS        N/A     30  32 100 MISG        N/A
NORTON KS      CLOUDY    30  27  86 S13       30.15F
SHARON SPRINGS   N/A     54  31  42 SW14        N/A
KIT CARSON CO    N/A     55  28  35 MISG        N/A
YUMA CO          N/A     50  32  49 W9          N/A
$$



USA.gov is the U.S. government's official web portal to all federal, state and local government web resources and services.